Location: Audinghen
(50.8518°N, 1.6129°E)
Time: 16:28:01
(UTC+00:00)

Cosmos 1503 Rocket - Pass Details

Date: 07 August 2020
Orbit: 753 x 790 km, 74.0° (Epoch: 25 September)

Event Time Altitude Azimuth Distance (km) Brightness Sun altitude
Exits shadow 00:56:42 47° 218° (SW) 1,046 4.3 -21.6°
Maximum altitude 00:58:18 79° 295° (WNW) 812 4.0 -21.6°
Drops below altitude 10° 01:03:42 10° 23° (NNE) 2,364 7.7 -21.3°
Sets 01:06:07 0° 24° (NNE) 3,294 8.8 -21.2°
